Location: Newark
(35.6799°N, 139.7636°E)
Time: 09:19:31
(UTC+00:00)

Transit 2A - Pass Details

Date: 15 December 2019
Orbit: 601 x 957 km, 66.7° (Epoch: 20 January)

Event Time Altitude Azimuth Distance (km) Brightness Sun altitude
Rises 06:04:50 0° 327° (NNW) 2,901 8.9 13.1°
Reaches altitude 10° 06:07:04 10° 323° (NW) 2,021 8.2 12.8°
Maximum altitude 06:11:29 55° 246° (WSW) 807 7.0 12.1°
Drops below altitude 10° 06:16:17 10° 169° (S) 2,187 8.8 11.3°
Sets 06:18:47 0° 165° (SSE) 3,163 9.5 10.9°
